Home   Weather   Colonia   Past weeks

Flag for Micronesia Past Weather in Colonia, Yap, Micronesia — Yesterday and Last 2 Weeks

Now
88 °F

Scattered clouds.


Feels Like: 101 °F
Forecast: 78 / 86 °F
Wind: 5 mph from North

Location: Yap Island

Current Time: May 1, 2017 at 2:22:32 pm

Latest Report: May 1, 2017 at 1:53 pm


Visibility: 12 mi

Pressure: 29.90 "Hg

Humidity: 71%

Dew Point: 77 °F

Location of ColoniaLocation

Past Weather in Colonia — Graph

°F

Colonia Temperature Yesterday

Maximum temperature yesterday: 87 °F (at 1:51 pm)
Minimum temperature yesterday: 77 °F (at 5:50 am)
Average temperature yesterday: 82 °F

High & Low Weather Summary for the Past Weeks

 TemperatureHumidityPressure
High88 °F (Apr 19, 12:50 pm)96% (Apr 30, 6:52 am)29.94 "Hg (Apr 30, 6:52 am)
Low77 °F (May 1, 1:50 am)68% (Apr 20, 11:50 am)29.71 "Hg (Apr 24, 3:51 pm)
Average82 °F84%29.82 "Hg
* Reported Apr 16 12:53 pm — May 1 12:51 pm, Colonia, Weather by CustomWeather, © 2017

Note: Actual official high and low records may vary slightly from our data, if they occured in-between our weather recording intervals... More about our weather records

Advertising

Colonia Weather History for the Previous 24 Hours

Scroll right to see more
 ConditionsComfort  
Time TempWeatherWind HumidityBarometerVisibility
12:51 pm
Mon, May 1
87 °FScattered clouds.7 mph74%29.90 "Hg12 mi
11:51 am87 °FScattered clouds.9 mph74%29.91 "Hg12 mi
10:51 am86 °FScattered clouds.5 mph74%29.93 "Hg12 mi
9:51 am86 °FScattered clouds.5 mph78%29.94 "Hg12 mi
8:54 am84 °FScattered clouds.6 mph81%29.94 "Hg12 mi
7:51 am81 °FScattered clouds.No wind92%29.90 "Hg12 mi
6:53 am77 °FPassing clouds.2 mph95%29.89 "Hg12 mi
5:51 am77 °FPartly cloudy.2 mph94%29.88 "Hg12 mi
4:50 am78 °FPartly cloudy.2 mph92%29.88 "Hg12 mi
3:50 am78 °FPartly cloudy.3 mph94%29.87 "Hg12 mi
2:54 am77 °FPartly cloudy.2 mph95%29.88 "Hg12 mi
1:50 am77 °FPartly cloudy.5 mph94%29.88 "Hg12 mi
12:51 am79 °FPassing clouds.6 mph93%29.88 "Hg12 mi
11:50 pm
Sun, Apr 30
79 °FPassing clouds.6 mph90%29.89 "Hg12 mi
9:50 pm78 °FPartly cloudy.6 mph94%29.90 "Hg12 mi
8:52 pm80 °FPartly cloudy.5 mph89%29.88 "Hg12 mi
7:51 pm82 °FBroken clouds.5 mph85%29.88 "Hg12 mi
6:50 pm82 °FBroken clouds.5 mph84%29.87 "Hg12 mi
5:50 pm83 °FScattered clouds.8 mph84%29.83 "Hg12 mi
4:52 pm87 °FScattered clouds.5 mph72%29.82 "Hg12 mi
3:50 pm87 °FScattered clouds.6 mph69%29.81 "Hg12 mi
2:51 pm87 °FScattered clouds.6 mph72%29.82 "Hg12 mi
Weather by CustomWeather, © 2017

See weather overviewHow to use our weather pages